Time,TemperatureF,DewpointF,PressureIn,WindDirection,WindDirectionDegrees,WindSpeedMPH,WindSpeedGustMPH,Humidity,HourlyPrecipIn,Conditions,Clouds,dailyrainin,SoftwareType,DateUTC
2014-09-30 00:05:00,62.6,56.0,29.90,SSE,164,0.0,1.0,79,0.00,,,0.01,weatherlink.com 1.10,2014-09-30 04:05:00,
2014-09-30 00:20:00,61.8,56.0,29.90,SSE,164,0.0,2.0,80,0.00,,,0.01,weatherlink.com 1.10,2014-09-30 04:20:00,
2014-09-30 00:35:00,61.3,56.0,29.90,SSE,162,0.0,1.0,82,0.00,,,0.00,weatherlink.com 1.10,2014-09-30 04:35:00,
2014-09-30 00:50:00,60.9,55.0,29.90,SSE,162,0.0,0.0,82,0.00,,,0.00,weatherlink.com 1.10,2014-09-30 04:50:00,
2014-09-30 01:05:00,60.4,55.0,29.90,SSE,162,0.0,0.0,83,0.00,,,0.00,weatherlink.com 1.10,2014-09-30 05:05:00,
2014-09-30 01:20:00,60.0,56.0,29.90,SSE,162,0.0,1.0,85,0.00,,,0.00,weatherlink.com 1.10,2014-09-30 05:20:00,
2014-09-30 01:35:00,59.8,55.0,29.89,SSE,150,0.0,1.0,84,0.00,,,0.00,weatherlink.com 1.10,2014-09-30 05:35:00,
2014-09-30 01:50:00,59.6,54.0,29.89,SSE,151,0.0,1.0,83,0.00,,,0.00,weatherlink.com 1.10,2014-09-30 05:50:00,
2014-09-30 02:05:00,59.4,55.0,29.90,SE,134,0.0,2.0,84,0.00,,,0.00,weatherlink.com 1.10,2014-09-30 06:05:00,
2014-09-30 02:20:00,59.0,54.0,29.90,SE,134,0.0,0.0,84,0.00,,,0.00,weatherlink.com 1.10,2014-09-30 06:20:00,
2014-09-30 02:35:00,58.5,54.0,29.90,SE,146,0.0,3.0,85,0.00,,,0.00,weatherlink.com 1.10,2014-09-30 06:35:00,
2014-09-30 02:51:00,58.0,54.0,29.89,SE,132,0.0,1.0,86,0.00,,,0.00,weatherlink.com 1.10,2014-09-30 06:51:00,
2014-09-30 03:06:00,57.7,54.0,29.90,SE,133,0.0,2.0,86,0.00,,,0.00,weatherlink.com 1.10,2014-09-30 07:06:00,
2014-09-30 03:21:00,57.4,54.0,29.89,SSE,148,1.0,1.0,87,0.00,,,0.00,weatherlink.com 1.10,2014-09-30 07:21:00,
2014-09-30 03:36:00,57.2,53.0,29.89,SE,127,0.0,1.0,87,0.00,,,0.00,weatherlink.com 1.10,2014-09-30 07:36:00,
2014-09-30 03:51:00,57.1,53.0,29.89,SSE,152,0.0,1.0,87,0.00,,,0.00,weatherlink.com 1.10,2014-09-30 07:51:00,
2014-09-30 04:06:00,56.7,53.0,29.88,SSE,160,0.0,1.0,87,0.00,,,0.00,weatherlink.com 1.10,2014-09-30 08:06:00,
2014-09-30 04:21:00,56.6,53.0,29.89,SE,143,0.0,2.0,88,0.00,,,0.00,weatherlink.com 1.10,2014-09-30 08:21:00,
2014-09-30 04:36:00,56.4,53.0,29.88,SE,142,0.0,3.0,88,0.00,,,0.00,weatherlink.com 1.10,2014-09-30 08:36:00,
2014-09-30 04:51:00,56.0,52.0,29.88,SE,130,0.0,4.0,87,0.00,,,0.00,weatherlink.com 1.10,2014-09-30 08:51:00,
2014-09-30 05:06:00,55.8,52.0,29.88,SE,144,1.0,3.0,88,0.00,,,0.00,weatherlink.com 1.10,2014-09-30 09:06:00,
2014-09-30 05:21:00,55.7,52.0,29.88,SSE,155,0.0,3.0,88,0.00,,,0.00,weatherlink.com 1.10,2014-09-30 09:21:00,
2014-09-30 05:36:00,55.8,53.0,29.88,SE,138,0.0,2.0,89,0.00,,,0.00,weatherlink.com 1.10,2014-09-30 09:36:00,
2014-09-30 05:51:00,55.7,53.0,29.88,SE,144,1.0,2.0,89,0.00,,,0.00,weatherlink.com 1.10,2014-09-30 09:51:00,
2014-09-30 06:06:00,55.6,53.0,29.89,SE,144,0.0,1.0,89,0.00,,,0.00,weatherlink.com 1.10,2014-09-30 10:06:00,
2014-09-30 06:21:00,55.5,52.0,29.89,SE,144,0.0,2.0,89,0.00,,,0.00,weatherlink.com 1.10,2014-09-30 10:21:00,
2014-09-30 06:36:00,55.5,52.0,29.89,SE,144,0.0,2.0,89,0.00,,,0.00,weatherlink.com 1.10,2014-09-30 10:36:00,
2014-09-30 06:51:00,55.3,52.0,29.89,SE,134,0.0,3.0,89,0.00,,,0.00,weatherlink.com 1.10,2014-09-30 10:51:00,
2014-09-30 07:06:00,55.2,52.0,29.90,SE,134,0.0,2.0,89,0.00,,,0.00,weatherlink.com 1.10,2014-09-30 11:06:00,
2014-09-30 07:21:00,55.0,52.0,29.90,SE,136,0.0,1.0,89,0.00,,,0.00,weatherlink.com 1.10,2014-09-30 11:21:00,
2014-09-30 07:36:00,55.1,52.0,29.91,SE,144,0.0,2.0,89,0.00,,,0.00,weatherlink.com 1.10,2014-09-30 11:36:00,
2014-09-30 07:51:00,55.2,52.0,29.91,SSE,150,2.0,4.0,89,0.00,,,0.00,weatherlink.com 1.10,2014-09-30 11:51:00,
2014-09-30 08:06:00,55.1,52.0,29.91,SE,135,1.0,5.0,88,0.00,,,0.00,weatherlink.com 1.10,2014-09-30 12:06:00,
2014-09-30 08:21:00,55.3,52.0,29.91,SE,132,0.0,4.0,89,0.00,,,0.00,weatherlink.com 1.10,2014-09-30 12:21:00,
2014-09-30 08:36:00,55.1,52.0,29.92,SE,133,0.0,4.0,89,0.00,,,0.00,weatherlink.com 1.10,2014-09-30 12:36:00,
2014-09-30 08:51:00,55.6,52.0,29.92,SE,136,2.0,4.0,88,0.00,,,0.00,weatherlink.com 1.10,2014-09-30 12:51:00,
2014-09-30 09:06:00,56.6,53.0,29.91,SE,130,0.0,3.0,87,0.00,,,0.00,weatherlink.com 1.10,2014-09-30 13:06:00,
2014-09-30 09:21:00,58.3,54.0,29.91,SE,130,2.0,2.0,86,0.00,,,0.00,weatherlink.com 1.10,2014-09-30 13:21:00,
2014-09-30 09:36:00,60.6,55.0,29.91,SE,130,0.0,2.0,82,0.00,,,0.00,weatherlink.com 1.10,2014-09-30 13:36:00,
2014-09-30 09:51:00,62.5,56.0,29.91,SE,131,1.0,2.0,78,0.00,,,0.00,weatherlink.com 1.10,2014-09-30 13:51:00,
2014-09-30 10:06:00,64.9,56.0,29.90,SE,131,0.0,1.0,74,0.00,,,0.00,weatherlink.com 1.10,2014-09-30 14:06:00,
2014-09-30 10:21:00,66.7,57.0,29.90,SE,126,0.0,2.0,71,0.00,,,0.00,weatherlink.com 1.10,2014-09-30 14:21:00,
2014-09-30 10:36:00,69.1,56.0,29.90,SE,125,0.0,2.0,64,0.00,,,0.00,weatherlink.com 1.10,2014-09-30 14:36:00,
2014-09-30 10:51:00,70.5,57.0,29.90,North,351,2.0,2.0,62,0.00,,,0.00,weatherlink.com 1.10,2014-09-30 14:51:00,
2014-09-30 11:06:00,71.7,57.0,29.90,SW,214,0.0,4.0,60,0.00,,,0.00,weatherlink.com 1.10,2014-09-30 15:06:00,
2014-09-30 11:21:00,72.7,57.0,29.90,South,189,2.0,6.0,59,0.00,,,0.00,weatherlink.com 1.10,2014-09-30 15:21:00,
2014-09-30 11:36:00,73.5,57.0,29.90,WSW,242,3.0,8.0,57,0.00,,,0.00,weatherlink.com 1.10,2014-09-30 15:36:00,
2014-09-30 11:51:00,74.5,57.0,29.90,West,265,6.0,8.0,55,0.00,,,0.00,weatherlink.com 1.10,2014-09-30 15:51:00,
2014-09-30 12:07:00,74.9,58.0,29.89,WNW,290,5.0,7.0,55,0.00,,,0.00,weatherlink.com 1.10,2014-09-30 16:07:00,
2014-09-30 12:22:00,75.5,58.0,29.90,West,281,5.0,9.0,55,0.00,,,0.00,weatherlink.com 1.10,2014-09-30 16:22:00,
2014-09-30 12:37:00,76.0,58.0,29.89,West,263,4.0,9.0,54,0.00,,,0.00,weatherlink.com 1.10,2014-09-30 16:37:00,
2014-09-30 12:52:00,76.7,59.0,29.89,NW,309,6.0,7.0,54,0.00,,,0.00,weatherlink.com 1.10,2014-09-30 16:52:00,
2014-09-30 13:07:00,76.8,59.0,29.89,NW,309,6.0,7.0,54,0.00,,,0.00,weatherlink.com 1.10,2014-09-30 17:07:00,
2014-09-30 13:22:00,77.0,59.0,29.89,WSW,238,5.0,10.0,54,0.00,,,0.00,weatherlink.com 1.10,2014-09-30 17:22:00,
2014-09-30 13:37:00,76.6,59.0,29.88,NW,314,2.0,9.0,54,0.00,,,0.00,weatherlink.com 1.10,2014-09-30 17:37:00,
2014-09-30 13:52:00,77.2,59.0,29.88,NW,310,1.0,6.0,54,0.00,,,0.00,weatherlink.com 1.10,2014-09-30 17:52:00,
2014-09-30 14:07:00,78.1,60.0,29.87,WNW,288,4.0,6.0,54,0.00,,,0.00,weatherlink.com 1.10,2014-09-30 18:07:00,
2014-09-30 14:22:00,79.5,60.0,29.86,WNW,284,6.0,6.0,51,0.00,,,0.00,weatherlink.com 1.10,2014-09-30 18:22:00,
2014-09-30 14:37:00,78.9,60.0,29.86,NW,314,3.0,10.0,52,0.00,,,0.00,weatherlink.com 1.10,2014-09-30 18:37:00,
2014-09-30 14:52:00,78.3,59.0,29.86,NNW,337,8.0,10.0,52,0.00,,,0.00,weatherlink.com 1.10,2014-09-30 18:52:00,
2014-09-30 15:07:00,77.4,59.0,29.86,NW,317,2.0,8.0,54,0.00,,,0.00,weatherlink.com 1.10,2014-09-30 19:07:00,
2014-09-30 15:22:00,77.5,60.0,29.86,WNW,300,3.0,10.0,55,0.00,,,0.00,weatherlink.com 1.10,2014-09-30 19:22:00,
2014-09-30 15:37:00,77.6,60.0,29.86,NW,307,4.0,10.0,55,0.00,,,0.00,weatherlink.com 1.10,2014-09-30 19:37:00,
2014-09-30 15:52:00,77.4,60.0,29.85,NW,315,1.0,8.0,56,0.00,,,0.00,weatherlink.com 1.10,2014-09-30 19:52:00,
2014-09-30 16:07:00,78.1,61.0,29.85,WNW,294,4.0,9.0,56,0.00,,,0.00,weatherlink.com 1.10,2014-09-30 20:07:00,
2014-09-30 16:22:00,76.5,61.0,29.85,NNW,334,7.0,13.0,59,0.00,,,0.00,weatherlink.com 1.10,2014-09-30 20:22:00,
2014-09-30 16:37:00,76.7,60.0,29.85,NW,317,5.0,10.0,57,0.00,,,0.00,weatherlink.com 1.10,2014-09-30 20:37:00,
2014-09-30 16:52:00,75.5,61.0,29.85,WNW,283,4.0,11.0,60,0.00,,,0.00,weatherlink.com 1.10,2014-09-30 20:52:00,
2014-09-30 17:07:00,74.4,60.0,29.85,NW,313,6.0,13.0,62,0.00,,,0.00,weatherlink.com 1.10,2014-09-30 21:07:00,
2014-09-30 17:22:00,73.8,61.0,29.86,NW,309,3.0,12.0,64,0.00,,,0.00,weatherlink.com 1.10,2014-09-30 21:22:00,
2014-09-30 17:37:00,73.8,61.0,29.85,North,10,5.0,11.0,64,0.00,,,0.00,weatherlink.com 1.10,2014-09-30 21:37:00,
2014-09-30 17:52:00,72.3,60.0,29.86,NNW,346,7.0,13.0,66,0.00,,,0.00,weatherlink.com 1.10,2014-09-30 21:52:00,
2014-09-30 18:07:00,72.0,60.0,29.86,NW,319,3.0,12.0,67,0.00,,,0.00,weatherlink.com 1.10,2014-09-30 22:07:00,
2014-09-30 18:22:00,71.2,60.0,29.87,North,360,5.0,9.0,68,0.00,,,0.00,weatherlink.com 1.10,2014-09-30 22:22:00,
2014-09-30 18:37:00,70.5,60.0,29.88,North,10,2.0,9.0,69,0.00,,,0.00,weatherlink.com 1.10,2014-09-30 22:37:00,
2014-09-30 18:52:00,69.3,60.0,29.88,NW,317,1.0,11.0,71,0.00,,,0.00,weatherlink.com 1.10,2014-09-30 22:52:00,
2014-09-30 19:07:00,68.3,59.0,29.89,NNW,338,7.0,12.0,72,0.00,,,0.00,weatherlink.com 1.10,2014-09-30 23:07:00,
2014-09-30 19:22:00,67.9,59.0,29.89,NNW,328,6.0,11.0,73,0.00,,,0.00,weatherlink.com 1.10,2014-09-30 23:22:00,
2014-09-30 19:37:00,67.4,58.0,29.90,NNW,348,5.0,11.0,73,0.00,,,0.00,weatherlink.com 1.10,2014-09-30 23:37:00,